Location: Hutchins
(43.0916°N, 93.8811°W)
Time: 08:14:06
(UTC+00:00)

ARIANE 6 FM1 Upper Stage - Pass Details

Date: 17 October 2024
Orbit: 560 x 596 km, 62.0° (Epoch: 04 November)

Event Time Altitude Azimuth Distance (km) Brightness Sun altitude
Rises 01:00:16 0° 329° (NNW) 2,827 6.7 -17.2°
Reaches altitude 10° 01:03:00 10° 346° (NNW) 1,929 5.6 -17.7°
Maximum altitude 01:06:20 21° 36° (NE) 1,355 4.3 -18.3°
Enters shadow 01:06:22 21° 37° (NE) 1,355 4.3 -18.3°
